[[{"header":{"parameterUnit":"m.s-1","parameterCategory":1,"la1":30.2991,"la2":30.254,"lo1":-89.0895,"lo2":-89.0444,"dy":0.0017,"dx":0.0017,"nx":28,"ny":28,"refTime":"2024-02-17T09:00:00:Z","depth":0,"parameterNumber":2,"parameterNumberName":"U-component_of_WINDS"},"data":[0,0,0,0,0,0,0,0,0,0,0,0,0,0,0,0,0,0,0,0,0,0,0,0,0,0,0,0,0,0,0,0,0,0,0,0,0,0,0,0,0,0,0,0,0,0,0,0,0,0,0,0,0,0,0,0,0,0,-0.168,-0.168,0,-0.1651,-0.165,-0.165,-0.163,-0.163,-0.1629,-0.1629,-0.1601,-0.16,-0.1599,0,0,0,0,0,0,0,0,0,0,0,0,0,-0.1719,-0.1719,-0.168,-0.168,-0.1679,-0.1651,-0.165,-0.165,-0.163,-0.163,-0.1629,-0.1629,-0.1601,-0.16,-0.1599,0,0,0,0,0,0,0,0,0,0,0,0,0,-0.1697,-0.1718,-0.168,-0.1666,-0.1664,-0.1651,-0.165,-0.165,-0.163,-0.163,-0.1629,-0.1629,-0.1601,-0.16,-0.1599,-0.1598,0,0,-0.1596,-0.1596,0,0,0,0,0,0,0,0,-0.1699,-0.1696,-0.1668,-0.1667,-0.1665,-0.1644,-0.1653,-0.1632,-0.163,-0.1643,-0.1629,-0.1629,-0.1615,-0.1613,-0.1608,-0.1597,-0.1595,-0.1596,-0.1596,-0.1595,-0.1595,0,0,0,0,0,0,0,-0.17,-0.1697,-0.1668,-0.1668,-0.1666,-0.1661,-0.1658,-0.1649,-0.1631,-0.1642,-0.164,-0.1637,-0.1614,-0.1609,-0.1607,-0.1595,-0.1596,-0.1595,-0.1595,-0.1594,-0.1579,-0.1579,0,0,0,0,0,0,-0.1704,-0.1698,-0.1669,-0.1668,-0.1682,-0.166,-0.1657,-0.1651,-0.1631,-0.1627,-0.1637,-0.1636,-0.1611,-0.1608,-0.1606,-0.1602,-0.1595,-0.1594,-0.1594,-0.1579,-0.1579,-0.1579,0,0,0,0,0,0,-0.1705,-0.1701,-0.1671,-0.1682,-0.1678,-0.166,-0.1653,-0.165,-0.1645,-0.1627,-0.1624,-0.1635,-0.161,-0.1607,-0.16,-0.1601,-0.1594,-0.1593,-0.1579,-0.1579,-0.1579,-0.1596,0,0,0,0,0,0,-0.1706,-0.1702,-0.1701,-0.1683,-0.1678,-0.1665,-0.1654,-0.165,-0.1643,-0.1642,-0.1625,-0.1622,-0.161,-0.1601,-0.1599,-0.16,-0.1592,-0.1579,-0.1579,-0.1579,-0.1595,-0.1596,-0.1598,0,0,0,0,0,-0.1707,-0.1708,-0.1701,-0.1698,-0.1677,-0.1665,-0.1662,-0.1648,-0.1644,-0.1643,-0.1631,-0.1622,-0.1601,-0.16,-0.1598,-0.1598,-0.1578,-0.1579,-0.1579,-0.1594,-0.1596,-0.1598,0,0,0,0,0,0,-0.1728,-0.1705,-0.1698,-0.1692,-0.168,-0.1661,-0.166,-0.1651,-0.1641,-0.164,-0.1624,-0.162,-0.1613,-0.1605,-0.1605,-0.1595,-0.1589,-0.1588,-0.1601,-0.1603,-0.1604,-0.1607,-0.1592,0,0,0,0,0,-0.1732,-0.1724,-0.1705,-0.1701,-0.1696,-0.1679,-0.1673,-0.1664,-0.1651,-0.1646,-0.1634,-0.1622,-0.1613,-0.1607,-0.1598,-0.1593,-0.1589,-0.1592,-0.1593,-0.1595,-0.1595,-0.1591,-0.1592,-0.158,-0.158,-0.158,0,0,-0.174,-0.1727,-0.1723,-0.1705,-0.1695,-0.1687,-0.1675,-0.1668,-0.1661,-0.1645,-0.1637,-0.1627,-0.1613,-0.1606,-0.1603,-0.1599,-0.1597,-0.1595,-0.1596,-0.1596,-0.1591,-0.1592,-0.1593,-0.1581,-0.1581,-0.1581,0,0,-0.1751,-0.174,-0.1736,-0.1725,-0.1709,-0.1698,-0.1697,-0.1678,-0.1671,-0.1662,-0.1649,-0.1641,-0.1626,-0.1616,-0.1609,-0.1613,-0.1605,-0.1611,-0.1618,-0.1614,-0.1615,-0.1616,-0.1617,-0.1618,-0.1611,-0.1611,-0.1611,0,-0.1764,-0.1751,-0.1735,-0.1728,-0.172,-0.1703,-0.1698,-0.1689,-0.1671,-0.1666,-0.1662,-0.1641,-0.163,-0.1621,-0.1621,-0.1616,-0.1614,-0.1613,-0.1616,-0.1617,-0.1617,-0.1618,-0.1619,-0.1612,-0.1612,-0.1612,-0.1611,0,-0.1767,-0.1758,-0.1756,-0.1738,-0.173,-0.1724,-0.1707,-0.1701,-0.1691,-0.168,-0.167,-0.1656,-0.1643,-0.164,-0.1631,-0.1628,-0.1626,-0.1619,-0.1613,-0.1619,-0.162,-0.162,-0.1613,-0.1613,-0.1612,-0.1612,0,0,-0.1792,-0.1763,-0.1763,-0.1754,-0.1734,-0.1727,-0.172,-0.1706,-0.17,-0.1688,-0.1681,-0.1667,-0.166,-0.1652,-0.1641,-0.1638,-0.1641,-0.1631,-0.163,-0.1633,-0.1636,-0.1642,-0.1643,-0.1635,-0.1635,-0.1635,-0.1637,0,-0.18,-0.1786,-0.177,-0.1761,-0.1752,-0.1735,-0.1729,-0.1716,-0.1704,-0.1695,-0.1682,-0.1673,-0.1664,-0.1659,-0.1655,-0.1642,-0.1642,-0.1641,-0.1628,-0.1628,-0.1633,-0.1643,-0.1649,-0.1653,-0.1638,-0.1638,-0.1638,0,-0.1808,-0.1795,-0.1785,-0.1764,-0.176,-0.1754,-0.1739,-0.1731,-0.1715,-0.1707,-0.1697,-0.1685,-0.1676,-0.1669,-0.1656,-0.1656,-0.1649,-0.1642,-0.1642,-0.164,-0.1634,-0.1642,-0.1653,-0.1654,-0.1638,-0.1638,-0.1638,0,-0.1827,-0.1807,-0.1798,-0.1791,-0.1767,-0.1763,-0.1752,-0.1736,-0.1728,-0.1715,-0.171,-0.1696,-0.1689,-0.1678,-0.1662,-0.1659,-0.165,-0.1643,-0.1643,-0.1644,-0.1643,-0.1644,-0.1654,-0.1639,-0.1639,-0.1639,-0.1639,0,-0.1838,-0.1833,-0.1806,-0.1801,-0.1794,-0.1775,-0.1769,-0.1757,-0.1742,-0.1734,-0.1718,-0.1711,-0.169,-0.168,-0.1668,-0.1658,-0.1655,-0.1648,-0.1645,-0.165,-0.1651,-0.1646,-0.1645,-0.1639,-0.1639,-0.1639,-0.1639,0,-0.1859,-0.1841,-0.183,-0.1807,-0.1801,-0.1797,-0.1777,-0.1771,-0.1757,-0.1747,-0.1743,-0.1723,-0.171,-0.1693,-0.1675,-0.1667,-0.1659,-0.1654,-0.1664,-0.1662,-0.1663,-0.1663,-0.1671,-0.1671,-0.1656,-0.1656,-0.1656,0,-0.1868,-0.1863,-0.1838,-0.1831,-0.1821,-0.181,-0.1801,-0.1782,-0.1773,-0.1753,-0.1749,-0.1735,-0.1723,-0.1703,-0.1686,-0.1672,-0.1667,-0.167,-0.1665,-0.1669,-0.1666,-0.1667,-0.1666,-0.1672,-0.1672,-0.1673,-0.1673,0,-0.1884,-0.1875,-0.1863,-0.1847,-0.1836,-0.1823,-0.1809,-0.1804,-0.1782,-0.1773,-0.1759,-0.1749,-0.173,-0.1715,-0.1698,-0.1688,-0.1676,-0.1674,-0.1674,-0.1679,-0.1685,-0.1681,-0.1668,-0.1675,-0.1674,-0.1674,-0.1674,-0.1674,-0.1899,-0.1894,-0.1875,-0.1861,-0.1848,-0.1835,-0.1827,-0.1812,-0.18,-0.1782,-0.1771,-0.1758,-0.174,-0.1716,-0.1705,-0.1694,-0.169,-0.1689,-0.1689,-0.1689,-0.169,-0.1686,-0.1691,-0.1691,-0.1691,-0.1691,-0.1691,0,-0.1915,-0.1902,-0.1889,-0.1869,-0.1858,-0.1847,-0.183,-0.1822,-0.1809,-0.1794,-0.1781,-0.1764,-0.1749,-0.1731,-0.1715,-0.1709,-0.1703,-0.1706,-0.1706,-0.1704,-0.1695,-0.1697,-0.171,-0.171,-0.171,-0.171,-0.171,-0.171,-0.1922,-0.1912,-0.19,-0.1882,-0.1868,-0.1854,-0.1845,-0.1833,-0.182,-0.1801,-0.1788,-0.1776,-0.1759,-0.1741,-0.1727,-0.1721,-0.1716,-0.172,-0.1713,-0.1706,-0.1704,-0.1703,-0.1705,-0.1719,-0.1719,-0.1722,-0.1722,-0.1723]},{"header":{"parameterUnit":"m.s-1","parameterCategory":1,"la1":30.2991,"la2":30.254,"lo1":-89.0895,"lo2":-89.0444,"dy":0.0017,"dx":0.0017,"nx":28,"ny":28,"refTime":"2024-02-17T09:00:00:Z","depth":0,"parameterNumber":3,"parameterNumberName":"V-component_of_WINDS"},"data":[0,0,0,0,0,0,0,0,0,0,0,0,0,0,0,0,0,0,0,0,0,0,0,0,0,0,0,0,0,0,0,0,0,0,0,0,0,0,0,0,0,0,0,0,0,0,0,0,0,0,0,0,0,0,0,0,0,0,-9.1083,-9.1084,0,-9.1123,-9.1124,-9.1124,-9.103,-9.1027,-9.1024,-9.1021,-9.1058,-9.1061,-9.1065,0,0,0,0,0,0,0,0,0,0,0,0,0,-9.0921,-9.0924,-9.1083,-9.1084,-9.1084,-9.1123,-9.1124,-9.1124,-9.103,-9.1027,-9.1023,-9.102,-9.1057,-9.1061,-9.1066,0,0,0,0,0,0,0,0,0,0,0,0,0,-9.0979,-9.0925,-9.1083,-9.1042,-9.1039,-9.1123,-9.1124,-9.1124,-9.1031,-9.1027,-9.1022,-9.1018,-9.1055,-9.1061,-9.1066,-9.1191,0,0,-9.1083,-9.1086,0,0,0,0,0,0,0,0,-9.0976,-9.0985,-9.1048,-9.1045,-9.1042,-9.1067,-9.108,-9.1146,-9.1032,-9.1034,-9.1021,-9.1016,-9.1064,-9.1069,-9.1086,-9.1192,-9.1194,-9.1084,-9.1087,-9.109,-9.1091,0,0,0,0,0,0,0,-9.0972,-9.0983,-9.1099,-9.1049,-9.1045,-9.102,-9.1024,-9.1092,-9.1074,-9.1033,-9.1027,-9.1033,-9.1062,-9.1081,-9.1086,-9.1194,-9.1084,-9.1089,-9.1092,-9.1094,-9.1403,-9.1408,0,0,0,0,0,0,-9.0974,-9.098,-9.1098,-9.11,-9.0997,-9.1027,-9.1031,-9.1063,-9.1073,-9.107,-9.1037,-9.1029,-9.1073,-9.108,-9.1087,-9.1232,-9.109,-9.1095,-9.1098,-9.1399,-9.1405,-9.141,0,0,0,0,0,0,-9.0971,-9.0985,-9.1096,-9.1038,-9.1051,-9.1034,-9.1072,-9.1067,-9.1086,-9.1075,-9.1071,-9.106,-9.107,-9.1079,-9.1166,-9.1232,-9.1098,-9.1103,-9.1393,-9.14,-9.1407,-9.1525,0,0,0,0,0,0,-9.0966,-9.0985,-9.1033,-9.104,-9.1054,-9.1175,-9.1076,-9.1071,-9.1096,-9.1086,-9.1096,-9.1093,-9.1067,-9.1158,-9.1171,-9.1238,-9.1107,-9.1387,-9.1396,-9.1405,-9.1515,-9.1535,-9.1552,0,0,0,0,0,-9.0961,-9.1064,-9.1036,-9.105,-9.1114,-9.1179,-9.1187,-9.1156,-9.1102,-9.1149,-9.1143,-9.1093,-9.1223,-9.1167,-9.1182,-9.1251,-9.1382,-9.1394,-9.1404,-9.1506,-9.1531,-9.1552,0,0,0,0,0,0,-9.1063,-9.1064,-9.1033,-9.1141,-9.1161,-9.1163,-9.1222,-9.1184,-9.1218,-9.1207,-9.1166,-9.1169,-9.1263,-9.1266,-9.1203,-9.1371,-9.1293,-9.1308,-9.1366,-9.1389,-9.1408,-9.1405,-9.1112,0,0,0,0,0,-9.1098,-9.1153,-9.115,-9.1246,-9.1257,-9.1239,-9.1266,-9.1241,-9.1259,-9.1266,-9.1266,-9.1285,-9.1329,-9.136,-9.1401,-9.1515,-9.1515,-9.157,-9.1589,-9.1604,-9.1616,-9.1676,-9.17,-9.1445,-9.1445,-9.1445,0,0,-9.1171,-9.1178,-9.1215,-9.1266,-9.1279,-9.1334,-9.1246,-9.1309,-9.1349,-9.1275,-9.1357,-9.1358,-9.1375,-9.1476,-9.1521,-9.1481,-9.1687,-9.1618,-9.1631,-9.1634,-9.169,-9.1714,-9.1735,-9.1453,-9.1451,-9.145,0,0,-9.1332,-9.1344,-9.1424,-9.1439,-9.146,-9.1447,-9.1466,-9.1475,-9.1473,-9.1554,-9.15,-9.1547,-9.1626,-9.164,-9.1658,-9.1826,-9.1781,-9.184,-9.1938,-9.1996,-9.2016,-9.2034,-9.2092,-9.2114,-9.1853,-9.1853,-9.1853,0,-9.1419,-9.1502,-9.147,-9.1537,-9.1561,-9.1498,-9.1579,-9.1594,-9.1627,-9.1644,-9.16,-9.1697,-9.1705,-9.1807,-9.1849,-9.1866,-9.1885,-9.1838,-9.2017,-9.2034,-9.205,-9.2105,-9.2127,-9.186,-9.1859,-9.1859,-9.1858,0,-9.1608,-9.1667,-9.1729,-9.1764,-9.1795,-9.1868,-9.1845,-9.188,-9.1853,-9.1844,-9.1927,-9.1935,-9.1976,-9.1998,-9.1972,-9.2098,-9.2072,-9.2024,-9.1944,-9.2081,-9.2132,-9.2153,-9.187,-9.1868,-9.1865,-9.1864,0,0,-9.1833,-9.185,-9.1873,-9.1887,-9.1906,-9.195,-9.202,-9.2062,-9.2091,-9.2116,-9.2173,-9.2241,-9.2196,-9.2216,-9.2191,-9.2243,-9.2373,-9.2187,-9.2186,-9.222,-9.2511,-9.2546,-9.2571,-9.2345,-9.2348,-9.2352,-9.2509,0,-9.1991,-9.2113,-9.2086,-9.2205,-9.2258,-9.22,-9.2261,-9.2278,-9.2272,-9.2315,-9.2307,-9.2356,-9.2293,-9.2305,-9.2354,-9.2347,-9.2431,-9.2336,-9.2395,-9.2397,-9.239,-9.2598,-9.2636,-9.2784,-9.2529,-9.2532,-9.2534,0,-9.2191,-9.2225,-9.235,-9.236,-9.2381,-9.2437,-9.2472,-9.2515,-9.2533,-9.2524,-9.2548,-9.2512,-9.258,-9.2502,-9.2594,-9.253,-9.2552,-9.2553,-9.2558,-9.256,-9.2473,-9.2605,-9.283,-9.2852,-9.2566,-9.2563,-9.2561,0,-9.2341,-9.2418,-9.2502,-9.2517,-9.2531,-9.2571,-9.2578,-9.2592,-9.2618,-9.2649,-9.2666,-9.2704,-9.2724,-9.2754,-9.2729,-9.2675,-9.2825,-9.2745,-9.2818,-9.2819,-9.2851,-9.2849,-9.3081,-9.2869,-9.2869,-9.2868,-9.2868,0,-9.2519,-9.2597,-9.2569,-9.2621,-9.2707,-9.2675,-9.276,-9.2761,-9.2774,-9.2823,-9.2775,-9.2823,-9.2788,-9.2832,-9.2813,-9.2891,-9.2901,-9.2895,-9.2889,-9.2898,-9.2899,-9.2911,-9.2899,-9.2874,-9.2873,-9.2872,-9.2871,0,-9.27,-9.2684,-9.2772,-9.2779,-9.2783,-9.2845,-9.285,-9.2897,-9.2888,-9.2952,-9.2965,-9.295,-9.2999,-9.2978,-9.303,-9.3017,-9.3117,-9.3098,-9.3111,-9.3105,-9.3179,-9.3172,-9.3427,-9.3458,-9.3227,-9.323,-9.3231,0,-9.2814,-9.2873,-9.2886,-9.2917,-9.2928,-9.2978,-9.3005,-9.2976,-9.3006,-9.3031,-9.3075,-9.3121,-9.3155,-9.3237,-9.323,-9.3269,-9.3249,-9.3336,-9.3254,-9.3262,-9.3248,-9.3244,-9.3249,-9.3351,-9.3354,-9.3356,-9.3358,0,-9.3017,-9.3006,-9.3048,-9.3088,-9.3123,-9.3152,-9.3177,-9.3204,-9.3176,-9.3212,-9.3263,-9.329,-9.3343,-9.3388,-9.3423,-9.3429,-9.3388,-9.3384,-9.3403,-9.3412,-9.3416,-9.3413,-9.3153,-9.3378,-9.3376,-9.3374,-9.3373,-9.3372,-9.3166,-9.3216,-9.3233,-9.3281,-9.3297,-9.3322,-9.3367,-9.3364,-9.3406,-9.3448,-9.3428,-9.3487,-9.3502,-9.3545,-9.3556,-9.36,-9.3566,-9.3594,-9.36,-9.3607,-9.3616,-9.3412,-9.3607,-9.3606,-9.3605,-9.3605,-9.3605,0,-9.3365,-9.3374,-9.3419,-9.3456,-9.3494,-9.3455,-9.348,-9.3514,-9.3566,-9.3585,-9.3621,-9.3678,-9.3722,-9.3719,-9.3759,-9.3795,-9.3777,-9.3806,-9.3802,-9.3804,-9.3645,-9.3624,-9.382,-9.382,-9.382,-9.382,-9.382,-9.382,-9.3473,-9.3555,-9.3547,-9.3635,-9.3642,-9.37,-9.3718,-9.374,-9.3755,-9.3822,-9.3859,-9.3857,-9.3867,-9.3907,-9.3945,-9.3943,-9.3959,-9.3994,-9.3985,-9.3836,-9.3815,-9.3795,-9.3775,-9.3999,-9.3999,-9.4139,-9.4141,-9.4142]}]]